QTR22U YMML-YSSY

Flight info

Callsign QTR22U
Flight time 1h 4m
Altitude 39000
Route DOSEL DCT EBONY DCT ARRAN DCT NONUP DCT CULIN DCT TARAL DCT RIVET
Aircraft A332/H-SDE3GHIJ2J3J5M1RVWXY/LB2D1

Departure

Time 2026-05-01 08:19
Airport Melbourne Airport (YMML)

Arrival

Time 2026-05-01 09:24
Airport Sydney Kingsford Smith International Airport (YSSY)
Time Latitude Longitude Altitude Speed Heading
2026-05-01 07:55 -37.66729 144.85268 343 ft 0 kts 262°
2026-05-01 08:03 -37.66725 144.85299 348 ft 3 kts 263°
2026-05-01 08:03 -37.66723 144.85323 354 ft 3 kts 263°
2026-05-01 08:03 -37.66735 144.85359 353 ft 0 kts 348°
2026-05-01 08:07 -37.66729 144.85357 354 ft 1 kts 348°
2026-05-01 08:07 -37.66689 144.85345 351 ft 5 kts 350°
2026-05-01 08:08 -37.66651 144.85338 352 ft 6 kts 354°
2026-05-01 08:08 -37.66584 144.85295 335 ft 4 kts 298°
2026-05-01 08:09 -37.66586 144.85113 338 ft 17 kts 268°
2026-05-01 08:09 -37.66546 144.85038 334 ft 11 kts 306°
2026-05-01 08:09 -37.66537 144.84938 336 ft 12 kts 264°
2026-05-01 08:10 -37.66535 144.84823 338 ft 0 kts 290°
2026-05-01 08:10 -37.66535 144.84822 338 ft 1 kts 282°
2026-05-01 08:11 -37.66573 144.84804 334 ft 11 kts 194°
2026-05-01 08:11 -37.66658 144.84561 360 ft 24 kts 261°
2026-05-01 08:12 -37.66717 144.84207 378 ft 17 kts 231°
2026-05-01 08:12 -37.66805 144.84193 378 ft 19 kts 171°
2026-05-01 08:12 -37.67296 144.84291 370 ft 50 kts 172°
2026-05-01 08:13 -37.67683 144.84360 364 ft 56 kts 171°
2026-05-01 08:13 -37.68077 144.84434 353 ft 57 kts 172°
2026-05-01 08:13 -37.68401 144.84426 333 ft 0 kts 211°
2026-05-01 08:14 -37.68404 144.84424 333 ft 2 kts 212°
2026-05-01 08:14 -37.68435 144.84398 333 ft 8 kts 214°
2026-05-01 08:14 -37.68503 144.84339 334 ft 15 kts 214°
2026-05-01 08:15 -37.68545 144.84271 332 ft 0 kts 253°
2026-05-01 08:16 -37.68545 144.84270 332 ft 1 kts 253°
2026-05-01 08:16 -37.68551 144.84231 333 ft 9 kts 265°
2026-05-01 08:17 -37.68536 144.84129 335 ft 14 kts 298°
2026-05-01 08:17 -37.68495 144.84082 334 ft 0 kts 341°
2026-05-01 08:17 -37.68494 144.84082 334 ft 0 kts 342°
2026-05-01 08:18 -37.68445 144.84067 337 ft 25 kts 346°
2026-05-01 08:18 -37.67727 144.83938 363 ft 100 kts 352°
2026-05-01 08:19 -37.65746 144.83561 507 ft 177 kts 353°
2026-05-01 08:19 -37.64568 144.83243 1208 ft 168 kts 349°
2026-05-01 08:19 -37.63443 144.82850 1928 ft 169 kts 351°
2026-05-01 08:19 -37.62196 144.82628 2281 ft 195 kts 358°
2026-05-01 08:20 -37.60741 144.82459 2649 ft 223 kts 357°
2026-05-01 08:20 -37.59150 144.82496 3370 ft 235 kts 11°
2026-05-01 08:20 -37.57592 144.83150 4240 ft 237 kts 22°
2026-05-01 08:20 -37.56080 144.84048 4763 ft 244 kts 24°
2026-05-01 08:21 -37.54534 144.85014 5301 ft 249 kts 24°
2026-05-01 08:21 -37.52978 144.85982 5924 ft 250 kts 24°
2026-05-01 08:21 -37.51410 144.86949 6562 ft 252 kts 24°
2026-05-01 08:21 -37.49821 144.87921 7161 ft 255 kts 23°
2026-05-01 08:22 -37.48217 144.88899 7741 ft 257 kts 23°
2026-05-01 08:22 -37.46599 144.89883 8350 ft 260 kts 23°
2026-05-01 08:22 -37.44955 144.90888 8919 ft 264 kts 25°
2026-05-01 08:22 -37.43441 144.92233 9503 ft 272 kts 42°
2026-05-01 08:23 -37.42227 144.94098 10086 ft 279 kts 50°
2026-05-01 08:23 -37.41077 144.96135 10361 ft 293 kts 51°
2026-05-01 08:23 -37.39881 144.98288 10571 ft 308 kts 51°
2026-05-01 08:23 -37.38621 145.00547 10796 ft 323 kts 51°
2026-05-01 08:24 -37.37300 145.02902 10996 ft 337 kts 52°
2026-05-01 08:24 -37.35920 145.05355 11209 ft 350 kts 52°
2026-05-01 08:24 -37.34485 145.07899 11451 ft 362 kts 52°
2026-05-01 08:24 -37.33016 145.10499 11837 ft 368 kts 52°
2026-05-01 08:25 -37.31523 145.13139 12277 ft 372 kts 52°
2026-05-01 08:25 -37.30038 145.15759 12750 ft 375 kts 52°
2026-05-01 08:25 -37.28497 145.18476 13239 ft 378 kts 52°
2026-05-01 08:25 -37.26985 145.21138 13689 ft 381 kts 52°
2026-05-01 08:26 -37.25440 145.23855 14134 ft 384 kts 52°
2026-05-01 08:26 -37.23884 145.26591 14554 ft 386 kts 52°
2026-05-01 08:26 -37.22316 145.29346 14941 ft 389 kts 52°
2026-05-01 08:26 -37.20734 145.32123 15336 ft 392 kts 52°
2026-05-01 08:27 -37.19139 145.34919 15743 ft 395 kts 52°
2026-05-01 08:27 -37.17536 145.37728 16161 ft 397 kts 52°
2026-05-01 08:27 -37.15999 145.40638 16563 ft 401 kts 56°
2026-05-01 08:27 -37.14559 145.43644 16946 ft 404 kts 57°
2026-05-01 08:28 -37.13129 145.46688 17361 ft 406 kts 57°
2026-05-01 08:28 -37.11692 145.49748 17750 ft 408 kts 57°
2026-05-01 08:28 -37.10247 145.52820 18127 ft 411 kts 57°
2026-05-01 08:28 -37.08789 145.55915 18514 ft 413 kts 57°
2026-05-01 08:29 -37.07322 145.59023 18858 ft 415 kts 56°
2026-05-01 08:29 -37.05846 145.62146 19172 ft 418 kts 56°
2026-05-01 08:29 -37.04364 145.65279 19519 ft 419 kts 56°
2026-05-01 08:29 -37.02871 145.68427 19875 ft 421 kts 56°
2026-05-01 08:30 -37.01324 145.71499 20466 ft 414 kts 52°
2026-05-01 08:30 -36.99688 145.74396 20902 ft 413 kts 51°
2026-05-01 08:30 -36.97998 145.77307 21268 ft 414 kts 51°
2026-05-01 08:30 -36.96279 145.80203 21615 ft 415 kts 50°
2026-05-01 08:31 -36.94539 145.83095 21977 ft 416 kts 50°
2026-05-01 08:31 -36.92787 145.85987 22302 ft 418 kts 50°
2026-05-01 08:31 -36.91023 145.88890 22636 ft 420 kts 50°
2026-05-01 08:31 -36.89247 145.91812 22959 ft 422 kts 50°
2026-05-01 08:32 -36.87470 145.94738 23288 ft 424 kts 50°
2026-05-01 08:32 -36.85681 145.97683 23607 ft 426 kts 50°
2026-05-01 08:32 -36.83889 146.00633 23905 ft 428 kts 50°
2026-05-01 08:32 -36.82087 146.03600 24140 ft 430 kts 50°
2026-05-01 08:33 -36.80277 146.06577 24375 ft 432 kts 50°
2026-05-01 08:33 -36.78456 146.09570 24614 ft 434 kts 50°
2026-05-01 08:33 -36.76625 146.12576 24843 ft 436 kts 50°
2026-05-01 08:33 -36.74781 146.15600 25061 ft 439 kts 50°
2026-05-01 08:34 -36.72929 146.18634 25282 ft 441 kts 50°
2026-05-01 08:34 -36.71063 146.21689 25498 ft 443 kts 50°
2026-05-01 08:34 -36.69189 146.24754 25714 ft 446 kts 50°
2026-05-01 08:34 -36.67306 146.27832 25920 ft 448 kts 50°
2026-05-01 08:35 -36.65410 146.30928 26119 ft 451 kts 50°
2026-05-01 08:35 -36.63502 146.34039 26320 ft 453 kts 50°
2026-05-01 08:35 -36.61585 146.37165 26489 ft 456 kts 50°
2026-05-01 08:35 -36.59678 146.40269 26688 ft 458 kts 50°
2026-05-01 08:36 -36.57736 146.43429 26903 ft 460 kts 50°
2026-05-01 08:36 -36.55789 146.46594 27097 ft 462 kts 50°
2026-05-01 08:36 -36.53829 146.49777 27312 ft 464 kts 50°
2026-05-01 08:36 -36.51861 146.52970 27501 ft 467 kts 50°
2026-05-01 08:37 -36.49880 146.56181 27698 ft 469 kts 50°
2026-05-01 08:37 -36.47887 146.59407 27850 ft 472 kts 50°
2026-05-01 08:37 -36.45888 146.62640 28029 ft 474 kts 50°
2026-05-01 08:37 -36.43874 146.65895 28227 ft 476 kts 50°
2026-05-01 08:38 -36.41854 146.69156 28413 ft 478 kts 50°
2026-05-01 08:38 -36.39821 146.72436 28588 ft 480 kts 50°
2026-05-01 08:38 -36.37782 146.75723 28779 ft 482 kts 50°
2026-05-01 08:38 -36.35729 146.79027 28949 ft 484 kts 50°
2026-05-01 08:39 -36.33669 146.82340 29103 ft 487 kts 50°
2026-05-01 08:39 -36.31598 146.85667 29270 ft 489 kts 50°
2026-05-01 08:39 -36.29516 146.89010 29416 ft 491 kts 50°
2026-05-01 08:39 -36.27424 146.92364 29618 ft 492 kts 50°
2026-05-01 08:40 -36.23301 146.98970 30673 ft 479 kts 51°
2026-05-01 08:40 -36.21258 147.02238 30833 ft 481 kts 50°
2026-05-01 08:40 -36.19218 147.05496 31199 ft 475 kts 50°
2026-05-01 08:41 -36.17238 147.08694 31955 ft 461 kts 51°
2026-05-01 08:41 -36.15344 147.11815 32711 ft 446 kts 51°
2026-05-01 08:41 -36.13528 147.14840 33468 ft 430 kts 51°
2026-05-01 08:41 -36.11769 147.17777 34032 ft 421 kts 51°
2026-05-01 08:42 -36.10049 147.20642 34186 ft 421 kts 51°
2026-05-01 08:42 -36.08300 147.23547 34241 ft 422 kts 51°
2026-05-01 08:42 -36.06532 147.26472 34092 ft 427 kts 50°
2026-05-01 08:42 -36.04747 147.29421 34097 ft 430 kts 50°
2026-05-01 08:43 -36.01144 147.35367 34171 ft 434 kts 50°
2026-05-01 08:43 -35.97507 147.41362 34301 ft 437 kts 51°
2026-05-01 08:44 -35.93845 147.47387 34401 ft 441 kts 51°
2026-05-01 08:44 -35.90144 147.53465 34487 ft 445 kts 51°
2026-05-01 08:45 -35.86407 147.59592 34575 ft 449 kts 51°
2026-05-01 08:45 -35.82632 147.65771 34650 ft 453 kts 51°
2026-05-01 08:46 -35.78830 147.71980 34775 ft 456 kts 51°
2026-05-01 08:46 -35.75641 147.77181 34844 ft 459 kts 51°
2026-05-01 08:47 -35.71769 147.83484 34934 ft 463 kts 51°
2026-05-01 08:47 -35.67859 147.89839 35011 ft 467 kts 50°
2026-05-01 08:48 -35.63918 147.96233 35100 ft 471 kts 50°
2026-05-01 08:48 -35.59932 148.02686 35112 ft 477 kts 50°
2026-05-01 08:49 -35.55893 148.09213 35124 ft 483 kts 50°
2026-05-01 08:49 -35.51800 148.15814 35131 ft 489 kts 50°
2026-05-01 08:50 -35.47660 148.22483 35125 ft 492 kts 51°
2026-05-01 08:50 -35.43829 148.29440 35136 ft 492 kts 55°
2026-05-01 08:51 -35.40109 148.36476 35134 ft 491 kts 55°
2026-05-01 08:51 -35.36399 148.43509 35137 ft 491 kts 55°
2026-05-01 08:52 -35.32681 148.50544 35142 ft 492 kts 55°
2026-05-01 08:52 -35.28992 148.57514 35142 ft 490 kts 55°
2026-05-01 08:53 -35.25279 148.64515 35143 ft 490 kts 55°
2026-05-01 08:53 -35.21563 148.71507 35136 ft 490 kts 55°
2026-05-01 08:54 -35.17838 148.78502 35137 ft 491 kts 55°
2026-05-01 08:54 -35.14113 148.85482 35124 ft 490 kts 55°
2026-05-01 08:55 -35.12252 148.88967 34713 ft 490 kts 54°
2026-05-01 08:55 -35.10386 148.92456 34192 ft 490 kts 54°
2026-05-01 08:55 -35.08526 148.95930 33725 ft 487 kts 54°
2026-05-01 08:55 -35.06674 148.99387 33183 ft 486 kts 54°
2026-05-01 08:56 -35.04824 149.02835 32649 ft 485 kts 54°
2026-05-01 08:56 -35.02982 149.06267 32225 ft 482 kts 54°
2026-05-01 08:56 -35.01153 149.09671 31862 ft 477 kts 54°
2026-05-01 08:56 -34.99338 149.13045 31352 ft 475 kts 54°
2026-05-01 08:57 -34.97528 149.16406 30862 ft 474 kts 54°
2026-05-01 08:57 -34.95721 149.19757 30364 ft 472 kts 54°
2026-05-01 08:57 -34.93919 149.23097 29710 ft 471 kts 54°
2026-05-01 08:57 -34.92111 149.26441 29455 ft 476 kts 54°
2026-05-01 08:58 -34.90278 149.29831 29319 ft 482 kts 54°
2026-05-01 08:58 -34.88427 149.33249 29177 ft 484 kts 54°
2026-05-01 08:58 -34.86573 149.36672 29050 ft 485 kts 54°
2026-05-01 08:58 -34.84716 149.40099 28921 ft 485 kts 54°
2026-05-01 08:59 -34.82859 149.43522 28785 ft 484 kts 54°
2026-05-01 08:59 -34.81003 149.46939 28662 ft 484 kts 54°
2026-05-01 08:59 -34.79149 149.50350 28520 ft 483 kts 54°
2026-05-01 08:59 -34.77293 149.53760 28403 ft 484 kts 54°
2026-05-01 09:00 -34.75428 149.57183 28264 ft 485 kts 54°
2026-05-01 09:00 -34.73569 149.60593 28129 ft 484 kts 54°
2026-05-01 09:00 -34.71710 149.63999 28000 ft 482 kts 54°
2026-05-01 09:00 -34.69863 149.67381 27874 ft 478 kts 54°
2026-05-01 09:01 -34.68025 149.70741 27747 ft 477 kts 54°
2026-05-01 09:01 -34.66217 149.74045 27608 ft 476 kts 54°
2026-05-01 09:01 -34.64383 149.77392 26980 ft 477 kts 54°
2026-05-01 09:01 -34.62540 149.80751 26406 ft 476 kts 54°
2026-05-01 09:02 -34.60716 149.84076 26019 ft 470 kts 54°
2026-05-01 09:02 -34.58910 149.87364 25568 ft 466 kts 54°
2026-05-01 09:02 -34.57119 149.90620 25111 ft 462 kts 54°
2026-05-01 09:02 -34.55341 149.93852 24658 ft 459 kts 54°
2026-05-01 09:03 -34.53574 149.97059 24189 ft 456 kts 54°
2026-05-01 09:03 -34.51816 150.00246 23666 ft 453 kts 54°
2026-05-01 09:03 -34.50068 150.03413 23133 ft 450 kts 54°
2026-05-01 09:03 -34.48334 150.06553 22628 ft 447 kts 54°
2026-05-01 09:04 -34.46612 150.09668 22127 ft 443 kts 54°
2026-05-01 09:04 -34.44904 150.12753 21632 ft 440 kts 54°
2026-05-01 09:04 -34.43204 150.15823 21143 ft 436 kts 55°
2026-05-01 09:04 -34.41517 150.18865 20648 ft 433 kts 55°
2026-05-01 09:05 -34.39845 150.21879 20157 ft 430 kts 55°
2026-05-01 09:05 -34.38185 150.24870 19708 ft 426 kts 55°
2026-05-01 09:05 -34.36537 150.27835 19244 ft 423 kts 55°
2026-05-01 09:05 -34.34900 150.30778 18794 ft 420 kts 55°
2026-05-01 09:06 -34.33277 150.33693 18272 ft 417 kts 55°
2026-05-01 09:06 -34.31662 150.36592 17766 ft 413 kts 55°
2026-05-01 09:06 -34.30063 150.39462 17279 ft 410 kts 55°
2026-05-01 09:06 -34.28486 150.42314 16786 ft 406 kts 57°
2026-05-01 09:07 -34.27072 150.45251 16319 ft 403 kts 60°
2026-05-01 09:07 -34.25741 150.48210 16008 ft 395 kts 61°
2026-05-01 09:07 -34.24457 150.51092 15844 ft 384 kts 61°
2026-05-01 09:07 -34.23208 150.53895 15670 ft 373 kts 61°
2026-05-01 09:08 -34.21991 150.56618 15522 ft 363 kts 60°
2026-05-01 09:08 -34.20806 150.59265 15372 ft 353 kts 60°
2026-05-01 09:08 -34.19652 150.61841 15237 ft 344 kts 60°
2026-05-01 09:08 -34.18527 150.64348 15080 ft 335 kts 60°
2026-05-01 09:09 -34.17431 150.66786 14950 ft 326 kts 60°
2026-05-01 09:09 -34.16366 150.69157 14808 ft 317 kts 60°
2026-05-01 09:09 -34.15327 150.71464 14639 ft 310 kts 60°
2026-05-01 09:09 -34.14304 150.73736 14379 ft 307 kts 60°
2026-05-01 09:10 -34.13286 150.75994 14064 ft 305 kts 60°
2026-05-01 09:10 -34.12275 150.78235 13722 ft 303 kts 60°
2026-05-01 09:10 -34.11257 150.80452 13369 ft 301 kts 58°
2026-05-01 09:10 -34.10245 150.82637 12827 ft 298 kts 58°
2026-05-01 09:11 -34.09241 150.84824 11895 ft 306 kts 58°
2026-05-01 09:11 -34.08200 150.87106 10964 ft 315 kts 58°
2026-05-01 09:11 -34.07144 150.89430 10183 ft 316 kts 59°
2026-05-01 09:11 -34.06095 150.91748 9411 ft 314 kts 59°
2026-05-01 09:12 -34.05057 150.94043 8690 ft 310 kts 59°
2026-05-01 09:12 -34.04032 150.96312 7999 ft 306 kts 59°
2026-05-01 09:12 -34.03229 150.98665 7264 ft 305 kts 77°
2026-05-01 09:12 -34.03313 151.01193 6639 ft 305 kts 105°
2026-05-01 09:13 -34.04379 151.03380 6351 ft 302 kts 127°
2026-05-01 09:13 -34.05786 151.05205 6285 ft 290 kts 131°
2026-05-01 09:13 -34.07194 151.06858 6276 ft 277 kts 137°
2026-05-01 09:13 -34.08834 151.07977 6288 ft 270 kts 158°
2026-05-01 09:14 -34.10648 151.08563 6296 ft 271 kts 164°
2026-05-01 09:14 -34.12498 151.09035 6261 ft 273 kts 165°
2026-05-01 09:14 -34.14380 151.09505 5827 ft 280 kts 165°
2026-05-01 09:14 -34.16269 151.09981 5612 ft 275 kts 165°
2026-05-01 09:15 -34.18128 151.10453 5355 ft 271 kts 165°
2026-05-01 09:15 -34.19966 151.10926 5079 ft 269 kts 165°
2026-05-01 09:15 -34.21793 151.11401 4776 ft 268 kts 165°
2026-05-01 09:15 -34.23531 151.12130 4477 ft 262 kts 142°
2026-05-01 09:16 -34.24738 151.13698 4180 ft 253 kts 112°
2026-05-01 09:16 -34.25135 151.15727 3838 ft 248 kts 88°
2026-05-01 09:16 -34.25089 151.17799 3558 ft 245 kts 83°
2026-05-01 09:17 -34.24849 151.21881 3294 ft 243 kts 82°
2026-05-01 09:17 -34.24724 151.23919 3290 ft 243 kts 82°
2026-05-01 09:17 -34.24457 151.27993 3294 ft 242 kts 76°
2026-05-01 09:18 -34.23773 151.29786 3287 ft 235 kts 46°
2026-05-01 09:18 -34.20784 151.30817 2996 ft 239 kts 342°
2026-05-01 09:19 -34.18198 151.28202 2992 ft 250 kts 313°
2026-05-01 09:19 -34.17069 151.26623 2992 ft 253 kts 312°
2026-05-01 09:19 -34.15944 151.25039 2985 ft 242 kts 312°
2026-05-01 09:20 -34.13479 151.22630 2998 ft 225 kts 342°
2026-05-01 09:20 -34.10437 151.21794 2855 ft 225 kts 350°
2026-05-01 09:21 -34.07420 151.20984 2243 ft 213 kts 349°
2026-05-01 09:21 -34.05999 151.20608 1935 ft 204 kts 349°
2026-05-01 09:21 -34.03366 151.19913 1408 ft 184 kts 349°
2026-05-01 09:22 -34.00982 151.19284 953 ft 167 kts 349°
2026-05-01 09:22 -33.98702 151.18672 491 ft 169 kts 348°
2026-05-01 09:23 -33.97570 151.18359 311 ft 171 kts 347°
2026-05-01 09:23 -33.95403 151.17806 29 ft 106 kts 348°
2026-05-01 09:24 -33.94409 151.17444 28 ft 33 kts 319°
2026-05-01 09:24 -33.94376 151.17407 29 ft 0 kts 316°
2026-05-01 09:26 -33.94375 151.17406 29 ft 1 kts 316°
2026-05-01 09:26 -33.94302 151.17328 28 ft 14 kts 324°
2026-05-01 09:26 -33.94190 151.17279 30 ft 20 kts 346°
2026-05-01 09:27 -33.94052 151.17235 28 ft 0 kts 346°
2026-05-01 09:28 -33.94024 151.17226 27 ft 9 kts 346°
2026-05-01 09:28 -33.93992 151.17182 25 ft 6 kts 283°
2026-05-01 09:28 -33.93998 151.17116 28 ft 11 kts 257°
2026-05-01 09:29 -33.94050 151.16846 28 ft 9 kts 279°
2026-05-01 09:29 -33.94012 151.16795 29 ft 10 kts 336°
2026-05-01 09:30 -33.93911 151.16804 28 ft 7 kts 54°
2026-05-01 09:30 -33.93891 151.16872 27 ft 0 kts 77°